Regional Weather Roundup
Issued by NWS

Home | Current Version | Previous Version | Text Only | Print | Product List | Glossary On
Versions: 1 2 3 4 5 6 7 8 9 10 11 12 13 14 15 16 17 18 19 20 21 22 23 24 25 26 27 28 29 30 31 32 33 34 35 36 37 38 39 40 41 42 43 44 45 46 47 48 49 50
000
ASUS43 KLSX 232307
RWRMO

WEATHER SUMMARY FOR MISSOURI
NATIONAL WEATHER SERVICE SPRINGFIELD MO
600 PM CDT TUE SEP 23 2014

NOTE: "FAIR" INDICATES FEW OR NO CLOUDS BELOW 12,000 FEET WITH NO
       SIGNIFICANT WEATHER AND/OR OBSTRUCTIONS TO VISIBILITY.
       CURRENT SKY AND/OR WEATHER CONDITIONS ARE NOT AVAILABLE FOR
       CHILLICOTHE AND FARMINGTON.

MOZ001>031-035>038-043-044-053-054-240000-
...NORTHERN AND WESTERN MISSOURI...

CITY           SKY/WX    TMP DP  RH WIND       PRES   REMARKS
KANSAS CTY INT CLOUDY    71  53  52 SE14      30.14F
KANSAS C DTWN  PTSUNNY   74  51  44 SE9G17    30.14S
LEE`S SUMMIT   MOSUNNY   72  49  44 SE9       30.16S
ST JOSEPH      CLOUDY    70  55  59 SE7       30.14F
CHILLICOTHE      N/A     71  51  49 SE3       30.19S
KIRKSVILLE     PTSUNNY   71  50  47 SE10      30.21S

$$
MOZ066>068-077>081-088>096-101>105-240000-
...SOUTHWEST MISSOURI...

CITY           SKY/WX    TMP DP  RH WIND       PRES   REMARKS
SPRINGFIELD    MOSUNNY   72  45  37 SE9       30.18S
JOPLIN         SUNNY     73  48  41 SE9       30.15F

$$
MOZ032>034-039>042-045>050-055>058-069>072-240000-
...CENTRAL MISSOURI...

CITY           SKY/WX    TMP DP  RH WIND       PRES   REMARKS
COLUMBIA       MOSUNNY   71  49  45 E6        30.20F
JEFFERSON CITY MOSUNNY   75  45  34 E6        30.19F
ROLLA          MOSUNNY   73  46  38 E8        30.20S
SEDALIA        PTSUNNY   72  48  42 SE7       30.20R
WHITEMAN AFB   PTSUNNY   71  50  48 SE8       30.18S
OSAGE BEACH    SUNNY     72  46  40 SE3       30.19F

$$
MOZ051-052-059>065-240000-
...EAST CENTRAL MISSOURI...

CITY           SKY/WX    TMP DP  RH WIND       PRES   REMARKS
ST LOUIS INTL  PTSUNNY   73  49  42 E7        30.23S
SPIRIT OF STL  PTSUNNY   73  55  53 CALM      30.21F
ST CHARLES     PTSUNNY   73  49  42 SE5       30.22S

$$
MOZ072>076-082>087-097>100-106>115-240000-
...SOUTH CENTRAL AND SOUTHEAST MISSOURI...

CITY           SKY/WX    TMP DP  RH WIND       PRES   REMARKS
CAPE GIRARDEAU CLEAR     74  49  41 E6        30.20F
FARMINGTON     MOSUNNY   70  48  46 CALM      30.24S
POPLAR BLUFF   SUNNY     73  47  39 NE5       30.18F
WEST PLAINS    MOSUNNY   72  45  37 E7        30.22S

$$



USA.gov is the U.S. government's official web portal to all federal, state and local government web resources and services.